[source: ADDS]
METAR
EDMA 231720Z 05005KT CAVOK 18/06 Q1017 RMK ATIS TAN =
TAF
TAF EDMA 231400Z 2315/2320 05005KT CAVOK TEMPO 2315/2318 TSRA BKN040CB =
SR / SS: 04:11 / 18:21 UTC (Referenz EDMA 2014-04-23)
Start Werde Pilot bei uns.

PostHeaderIcon Werde Pilot bei uns auf der Irpfel.

Wollen Sie Ihren Traum vom Fliegen Wirklichkeit werden lassen?

Heben Sie mit uns ab und geniessen Sie dieses unbeschreibliche Gefühl bei einem Flug über die Schwäbische Alb und das Algäu; sei es bei einem Schnupperflug oder als Flugschüler in der Pilotenausbildung. Fliegen bei uns auf der Irpfel bei der Fliegergruppe Giengen/Brz. e. V. es ist ein Erlebnis

- schauen Sie vorbei, wir freuen uns auf Sie -

Die wichtigsten Informationen für das fliegerisch Handwerk finden Sie in unserem Leitfaden für Flieger viel Spass beim stöbern und lesen wünscht die Fliegergruppe.